Weather History for Herbert Island, BC

Change the Weather History Date:

Sunday, November 3, 2013

  Actual Average Record
Temperature  
Mean Temperature 46 °F -  
Max Temperature 48 °F - - ()
Min Temperature 44 °F - - ()
Degree Days  
Heating Degree Days 19    
Moisture  
Dew Point 41 °F    
Average Humidity 82    
Maximum Humidity 90    
Minimum Humidity 72    
Precipitation  
Precipitation 0.00 in - - ()
Sea Level Pressure  
Sea Level Pressure 30.06 in    
Wind  
Wind Speed 12 mph ()    
Max Wind Speed 22 mph    
Max Gust Speed 29 mph    
T = Trace of Precipitation, MM = Missing Value Source: Averaged Metar Reports

Daily Weather History Graph

Daily Weather History Graph

Search for Another Location

Airport:

Trip Planner

Search our weather history database for the weather conditions in past years. The results will help you decide how hot, cold, wet, or windy it might be!

Date:

Astronomy

Nov. 03, 2013 Rise Set
Actual Time 7:26 AM PST 5:00 PM PST
Civil Twilight 6:51 AM PST 5:35 PM PST
Nautical Twilight 6:12 AM PST 6:14 PM PST
Astronomical Twilight 5:34 AM PST 6:53 PM PST
Moon 7:40 AM PST (11/3) 5:16 PM PST (11/3)
Length of Visible Light 10h 43m
Length of Day
9h 33m
New Moon, 0% of the Moon is Illuminated
Nov 3
New Moon
Nov 9
First Quarter
Nov 17
Full
Nov 25
Last Quarter
Dec 2
New

Hourly Weather History & Observations

Time (PST) Temp. Windchill Dew Point Humidity Pressure Visibility Wind Dir Wind Speed Gust Speed Precip Events Conditions
12:00 AM 47.7 °F - 41.9 °F 80% 29.99 in - NW 21.9 mph 28.8 mph N/A   Unknown
1:00 AM 47.3 °F - 41.0 °F 79% 29.99 in - NW 20.7 mph 27.6 mph N/A   Unknown
1:00 AM 47.5 °F - 41.4 °F 79% 30.00 in - NW 20.7 mph 28.8 mph N/A   Unknown
2:00 AM 47.3 °F - 41.0 °F 79% 30.01 in - NNW 21.9 mph - N/A   Unknown
3:00 AM 46.8 °F - 41.4 °F 81% 30.02 in - NNW 17.3 mph - N/A   Unknown
4:00 AM 45 °F - 41 °F 80% 30.03 in - North 12.7 mph - -  
4:00 AM 45.3 °F 39.3 °F 40.8 °F 84% 30.03 in - North 12.7 mph - N/A   Unknown
5:00 AM 45.0 °F 39.7 °F 40.3 °F 84% 30.04 in - NNW 10.4 mph - N/A   Unknown
6:00 AM 45.0 °F 39.3 °F 40.8 °F 85% 30.04 in - NNW 11.5 mph - N/A   Unknown
7:00 AM 44.4 °F 40.0 °F 39.9 °F 84% 30.05 in - NNW 8.1 mph - N/A   Unknown
8:00 AM 44.4 °F 41.2 °F 39.7 °F 84% 30.06 in - NW 5.8 mph - N/A   Unknown
9:00 AM 44.6 °F 41.4 °F 40.1 °F 84% 30.06 in - NW 5.8 mph - N/A   Unknown
10:00 AM 46 °F - 40 °F 72% 30.07 in - WNW 10.4 mph - -  
10:00 AM 45.7 °F 40.6 °F 39.9 °F 80% 30.07 in - WNW 10.4 mph - N/A   Unknown
11:00 AM 46.4 °F 41.9 °F 40.5 °F 80% 30.09 in - WNW 9.2 mph - N/A   Unknown
12:00 PM 47.7 °F - 41.0 °F 78% 30.09 in - WNW 10.4 mph - N/A   Unknown
1:00 PM 47.5 °F - 40.1 °F 76% 30.09 in - WNW 9.2 mph - N/A   Unknown
2:00 PM 46.2 °F 42.7 °F 40.8 °F 81% 30.09 in - NW 6.9 mph - N/A   Unknown
3:00 PM 46.6 °F - 41.4 °F 82% 30.09 in - NW 5.8 mph - N/A   Unknown
4:00 PM 46 °F - 41 °F 77% 30.09 in - NW 4.6 mph - -  
4:00 PM 45.9 °F 43.6 °F 41.0 °F 83% 30.09 in - NW 4.6 mph - N/A   Unknown
5:00 PM 45.9 °F 43.6 °F 40.8 °F 83% 30.09 in - NNW 4.6 mph - N/A   Unknown
6:00 PM 45.7 °F 43.4 °F 40.8 °F 83% 30.08 in - North 4.6 mph - N/A   Unknown
7:00 PM 45.0 °F - 40.5 °F 84% 30.08 in - NNE 2.3 mph - N/A   Unknown
8:00 PM 45.0 °F 43.5 °F 41.0 °F 86% 30.09 in - South 3.5 mph - N/A   Unknown
9:00 PM 45.0 °F 40.1 °F 41.7 °F 88% 30.08 in - ESE 9.2 mph - N/A   Unknown
10:00 PM 44 °F - 42 °F 88% 30.08 in - ESE 11.5 mph - -  
10:00 PM 44.4 °F 38.6 °F 41.5 °F 90% 30.08 in - ESE 11.5 mph - N/A   Unknown